Lapse_Rate
7.1 6.9 7.4 7.0 6.0 5.2 3.9 3.8 3.8 3.5 4.3 4.3 4.7 4.7 4.7 5.0 5.7 5.4 5.6 6.2 5.6 5.5
7.3 7.1 6.5 6.4 6.6 5.9 4.8 4.6 4.0 3.7 4.1 4.3 4.0 4.8 4.9 5.1 5.6 5.7 6.0 5.6 5.4 5.6
6.9 7.3 6.9 6.9 6.6 6.2 5.8 5.3 4.5 4.1 4.0 4.0 4.1 4.0 4.1 4.7 4.9 5.5 5.2 4.8 4.9 4.9
7.3 7.1 7.1 6.9 7.0 6.4 6.6 6.2 5.6 5.1 4.2 3.8 4.1 4.1 4.2 4.0 4.2 4.4 4.2 4.5 4.5 4.5
7.1 6.9 6.6 6.9 6.8 6.2 6.2 5.9 5.7 5.7 5.4 4.9 4.4 4.2 4.3 4.4 4.2 4.3 4.1 4.0 4.2 4.9
7.1 6.9 6.8 7.3 7.2 7.3 6.4 5.4 5.6 5.8 5.6 5.6 5.0 4.4 4.3 4.4 4.0 4.0 4.6 4.6 4.7 4.6
3.5 4.7 4.4 4.9 6.1 6.6 6.3 5.9 5.9 5.4 2.2 1.2 0.3 0.7 2.4 4.9 4.8 4.6 4.9 4.8 4.7 4.7
2.0 2.2 2.7 2.0 1.8 1.4 1.9 1.5 2.2 0.9 -0.1 -1.2 -1.9 -2.7 -2.2 0.8 4.0 5.2 5.1 4.6 5.1 2.3
1.6 1.3 0.7 0.5 -0.2 -0.7 -0.8 -1.1 -2.0 -2.2 -2.4 -2.5 -2.8 -4.0 -3.5 -2.1 2.6 0.9 0.7 -0.2 -0.2 0.1
1.6 0.7 -0.2 -0.7 -1.1 -1.6 -2.2 -2.2 -2.8 -3.1 -3.1 -3.8 -3.8 -3.8 -3.1 -2.3 -1.8 -2.9 -3.2 -3.0 -2.2 -1.6
3.0 2.4 1.9 0.3 -0.9 -1.1 -1.5 -2.0 -2.1 -2.4 -3.0 -3.4 -3.3 -2.9 -3.2 -3.4 -3.3 -3.9 -4.3 -4.3 -3.5 -3.6
5.0 4.5 3.8 2.8 1.9 1.0 0.6 -1.0 -0.7 -0.2 -1.0 -1.7 -2.5 -2.0 -1.6 -1.5 -2.3 -2.9 -3.2 -3.2 -3.0 -2.8
4.7 3.8 6.1 5.8 5.3 4.1 2.8 1.9 -0.3 0.1 0.1 -0.2 -0.7 -0.2 0.1 0.1 -0.3 -0.9 -1.4 -1.5 -1.4 -1.6
3.9 3.5 3.4 5.4 6.6 5.1 3.9 2.3 1.1 2.3 1.8 0.6 1.1 1.4 0.9 2.4 2.3 1.1 0.4 -0.0 -0.6 -0.5
Wind_Speed
11 5 5 8 8 6 5 5 7 4 6 7 10 12 12 13 8 9 8 9 4 3
9 9 6 7 8 7 7 6 8 8 7 6 5 11 13 10 9 8 9 8 5 2
8 7 6 6 6 7 8 9 9 8 8 6 6 5 6 8 6 6 4 3 5 3
7 7 6 6 6 5 5 7 9 9 9 8 8 7 6 6 6 6 5 4 5 4
6 7 6 6 6 7 7 6 6 7 8 9 8 8 9 9 8 9 8 7 5 6
6 6 5 6 7 6 8 6 5 5 8 9 8 10 9 9 9 9 9 8 8 7
10 10 10 9 6 5 6 6 5 8 12 12 12 10 6 5 8 9 9 9 10 10
9 10 10 11 11 11 12 11 12 13 12 12 11 8 7 5 4 7 9 9 9 6
10 11 12 11 11 12 13 13 14 13 12 11 8 11 8 3 8 11 10 9 8 9
11 11 12 12 12 12 13 13 13 12 11 12 11 15 11 15 11 11 11 11 10 9
12 12 11 12 13 12 12 14 12 12 12 11 12 17 17 18 13 13 14 13 11 10
12 12 11 11 11 11 11 14 13 12 12 13 14 20 12 13 12 13 14 13 15 11
10 14 10 10 11 12 12 13 12 14 13 19 14 22 16 12 8 12 9 11 12 21
9 12 12 11 8 12 12 13 15 13 12 15 15 17 25 17 10 8 9 9 9 9
Wind_Direction
139 153 162 158 149 166 167 151 150 136 131 123 163 168 172 182 180 186 218 221 189 176
142 161 146 144 156 165 153 155 153 152 146 141 124 173 168 176 178 195 216 214 184 152
120 119 130 125 131 145 153 158 158 156 152 153 145 133 123 136 143 164 179 145 147 124
126 147 141 145 144 130 139 148 160 161 160 162 166 162 154 145 151 162 152 156 162 156
111 110 127 131 137 124 120 122 138 153 159 168 169 167 173 176 172 183 186 185 183 193
131 127 144 140 139 128 118 118 122 126 163 163 166 173 180 184 178 192 192 191 189 187
55 55 65 52 75 97 112 121 112 65 61 66 63 51 38 183 184 192 199 190 194 206
62 62 66 63 62 65 66 64 79 76 68 64 55 35 17 12 7 201 195 204 212 49
61 66 69 72 70 69 68 68 74 69 68 60 49 11 14 354 73 60 55 53 43 60
68 67 71 74 70 71 77 74 70 68 65 58 35 13 46 70 74 72 61 50 44 45
67 67 67 75 79 72 74 75 71 66 61 54 30 50 75 79 79 73 63 53 47 49
64 72 67 68 77 82 77 80 70 58 56 56 42 32 64 79 78 76 69 58 50 47
51 76 67 77 82 85 81 81 82 64 54 51 49 41 62 73 87 84 75 64 55 52
39 64 78 64 72 84 87 83 75 79 70 63 51 49 53 64 77 81 82 72 61 55